Rygge, Norway

11:20 PM CEST on April 30, 2017 (GMT +0200)
Rygge Air Base

Weather History for ENRY - November, 2012

Change the Weather History Date:

Wednesday, November 14, 2012

  Actual Average Record
Temperature  
Mean Temperature 48 °F -  
Max Temperature 50 °F 36 °F 51 °F (2005)
Min Temperature 45 °F 28 °F 19 °F (1996)
Degree Days  
Heating Degree Days 18    
Moisture  
Dew Point 46 °F    
Average Humidity 94    
Maximum Humidity 100    
Minimum Humidity 87    
Precipitation  
Precipitation 0.01 in - - ()
Sea Level Pressure  
Sea Level Pressure 30.07 in    
Wind  
Wind Speed 12 mph ()    
Max Wind Speed 17 mph    
Max Gust Speed -    
Visibility 4.0 miles    
Events Fog , Rain    
Averages and records for this station are not official NWS values.
T = Trace of Precipitation, MM = Missing Value Source: Averaged Metar Reports

Daily Weather History Graph

Daily Weather History Graph

Search for Another Location

Airport or City:

Trip Planner

Search our weather history database for the weather conditions in past years. The results will help you decide how hot, cold, wet, or windy it might be!

Date:

Astronomy

Nov. 14, 2012 Rise Set
Actual Time 8:09 AM CET 3:52 PM CET
Civil Twilight 7:21 AM CET 4:40 PM CET
Nautical Twilight 6:31 AM CET 5:30 PM CET
Astronomical Twilight 5:43 AM CET 6:18 PM CET
Moon 8:53 AM CET (11/14) 4:08 PM CET (11/14)
Length of Visible Light 9h 18m
Length of Day
7h 43m
New Moon, 0% of the Moon is Illuminated
Nov 14
New Moon
Nov 20
First Quarter
Nov 28
Full
Dec 6
Last Quarter
Dec 13
New

Hourly Weather History & Observations

Time (CET) Temp. Windchill Dew Point Humidity Pressure Visibility Wind Dir Wind Speed Gust Speed Precip Events Conditions
12:20 AM 48.2 °F - 46.4 °F 93% 30.15 in 0.4 mi South 13.8 mph - N/A Fog Light Drizzle
12:50 AM 48.2 °F - 46.4 °F 93% 30.12 in 0.7 mi South 16.1 mph - N/A   Light Drizzle
1:00 AM 48 °F - 47 °F 96% 30.15 in 1 mi SSW 15.7 mph - -   Mist
1:20 AM 48.2 °F - 46.4 °F 93% 30.12 in 0.6 mi SSW 15.0 mph - N/A Fog Fog
1:50 AM 48.2 °F - 46.4 °F 93% 30.12 in 0.3 mi South 13.8 mph - N/A Fog Fog
2:20 AM 48.2 °F - 46.4 °F 93% 30.12 in 0.6 mi SSW 15.0 mph - N/A Fog Fog
2:50 AM 48.2 °F - 46.4 °F 93% 30.09 in 0.5 mi SSW 15.0 mph - N/A Fog Fog
3:20 AM 48.2 °F - 46.4 °F 93% 30.09 in - SSW 16.1 mph - N/A Fog Fog
3:50 AM 48.2 °F - 46.4 °F 93% 30.09 in 0.3 mi SSW 15.0 mph - N/A Fog Fog
4:20 AM 48.2 °F - 46.4 °F 93% 30.09 in 0.5 mi SSW 12.7 mph - N/A Fog Fog
4:50 AM 46.4 °F 40.1 °F 46.4 °F 100% 30.09 in - South 15.0 mph - N/A   Overcast
5:20 AM 46.4 °F 40.7 °F 46.4 °F 100% 30.09 in 3.1 mi SSW 12.7 mph - N/A   Overcast
5:50 AM 46.4 °F 40.4 °F 46.4 °F 100% 30.09 in - SSW 13.8 mph - N/A   Overcast
6:20 AM 46.4 °F 40.4 °F 46.4 °F 100% 30.09 in 2.8 mi SSW 13.8 mph - N/A   Mostly Cloudy
6:50 AM 48.2 °F - 46.4 °F 93% 30.09 in 3.1 mi SSW 12.7 mph - N/A   Mostly Cloudy
7:00 AM 47 °F - 46 °F 97% 30.10 in 3 mi SSW 13.4 mph - -   Mist
7:20 AM 46.4 °F 40.4 °F 46.4 °F 100% 30.09 in 3.7 mi SSW 13.8 mph - N/A   Mostly Cloudy
7:50 AM 48.2 °F - 46.4 °F 93% 30.06 in 3.1 mi SSW 16.1 mph - N/A   Mostly Cloudy
8:20 AM 48.2 °F - 46.4 °F 93% 30.06 in 3.1 mi SSW 17.3 mph - N/A   Mostly Cloudy
8:50 AM 48.2 °F - 46.4 °F 93% 30.09 in 3.7 mi SSW 15.0 mph - N/A   Mostly Cloudy
9:20 AM 48.2 °F - 46.4 °F 93% 30.09 in 3.1 mi SSW 11.5 mph - N/A   Mostly Cloudy
9:50 AM 48.2 °F - 46.4 °F 93% 30.09 in 3.7 mi SSW 13.8 mph - N/A   Mostly Cloudy
10:20 AM 48.2 °F - 46.4 °F 93% 30.09 in - SSW 11.5 mph - N/A   Mostly Cloudy
10:50 AM 48.2 °F - 46.4 °F 93% 30.09 in 3.1 mi SSW 15.0 mph - N/A   Mostly Cloudy
11:20 AM 48.2 °F - 46.4 °F 93% 30.09 in 5.0 mi SW 11.5 mph - N/A   Mostly Cloudy
11:50 AM 48.2 °F - 46.4 °F 93% 30.09 in 4.3 mi SSW 11.5 mph - N/A   Mostly Cloudy
12:20 PM 48.2 °F - 46.4 °F 93% 30.09 in 5.0 mi SSW 11.5 mph - N/A   Mostly Cloudy
12:50 PM 48.2 °F - 48.2 °F 100% 30.09 in 5.0 mi SSW 9.2 mph - N/A   Mostly Cloudy
1:00 PM 49 °F - 47 °F 91% 30.10 in 6 mi SSW 6.7 mph - -   Mist
1:20 PM 48.2 °F - 46.4 °F 93% 30.09 in 5.6 mi SSW 8.1 mph - N/A   Mostly Cloudy
1:50 PM 50.0 °F - 48.2 °F 94% 30.09 in 5.6 mi SW 10.4 mph - N/A   Mostly Cloudy
2:20 PM 50.0 °F - 46.4 °F 87% 30.09 in 6.2 mi SSW 9.2 mph - N/A   Mostly Cloudy
2:50 PM 50.0 °F - 46.4 °F 87% 30.09 in 6.2 mi SSW 5.8 mph - N/A   Mostly Cloudy
3:20 PM 48.2 °F - 46.4 °F 93% 30.09 in 6.2 mi South 4.6 mph - N/A   Scattered Clouds
3:50 PM 48.2 °F - 46.4 °F 93% 30.09 in 6.2 mi South 5.8 mph - N/A   Mostly Cloudy
4:20 PM 48.2 °F - 46.4 °F 93% 30.06 in 6.2 mi South 6.9 mph - N/A   Mostly Cloudy
4:50 PM 48.2 °F - 46.4 °F 93% 30.06 in 6.2 mi South 9.2 mph - N/A   Mostly Cloudy
5:20 PM 48.2 °F - 46.4 °F 93% 30.06 in 6.2 mi South 6.9 mph - N/A   Mostly Cloudy
5:50 PM 48.2 °F - 46.4 °F 93% 30.06 in 5.6 mi South 6.9 mph - N/A   Mostly Cloudy
6:20 PM 48.2 °F - 46.4 °F 93% 30.04 in 5.0 mi Variable 5.8 mph - N/A   Mostly Cloudy
6:50 PM 48.2 °F - 46.4 °F 93% 30.04 in 6.2 mi SSW 8.1 mph - N/A   Mostly Cloudy
7:00 PM 48 °F - 46 °F 92% 30.05 in 9 mi SSW 8.9 mph - -   Partly Cloudy
7:20 PM 48.2 °F - 46.4 °F 93% 30.04 in 5.0 mi SW 10.4 mph - N/A   Mostly Cloudy
7:50 PM 48.2 °F - 46.4 °F 93% 30.04 in 6.2 mi SSW 11.5 mph - N/A   Mostly Cloudy
8:20 PM 48.2 °F - 46.4 °F 93% 30.01 in 4.3 mi South 10.4 mph - N/A Rain Light Rain
8:50 PM 48.2 °F - 46.4 °F 93% 30.01 in 5.0 mi SSW 9.2 mph - N/A   Drizzle
9:20 PM 48.2 °F - 46.4 °F 93% 29.98 in 4.3 mi SW 11.5 mph - N/A   Light Drizzle
9:50 PM 48.2 °F - 46.4 °F 93% 29.98 in 4.3 mi SSW 11.5 mph - N/A   Light Drizzle
10:20 PM 48.2 °F - 46.4 °F 93% 29.95 in 4.3 mi SW 10.4 mph - N/A   Mostly Cloudy
10:50 PM 48.2 °F - 46.4 °F 93% 29.95 in 1.8 mi SW 9.2 mph - N/A   Drizzle
11:20 PM 48.2 °F - 46.4 °F 93% 29.95 in 5.6 mi SW 10.4 mph - N/A   Overcast
11:50 PM 48.2 °F - 46.4 °F 93% 29.95 in 6.2 mi WSW 9.2 mph - N/A   Overcast